Regional Weather Roundup
Issued by NWS

Home | Current Version | Previous Version | Graphics & Text | Print | Product List | Glossary On
Versions: 1 2 3 4 5 6 7 8 9 10 11 12 13 14 15 16 17 18 19 20 21 22 23 24 25 26 27 28 29 30 31 32 33 34 35 36 37 38 39 40 41 42 43 44 45 46 47 48 49 50
000
ASUS45 KABQ 180110
RWRNM
WEATHER ROUNDUP FOR NEW MEXICO
NATIONAL WEATHER SERVICE ALBUQUERQUE NM
600 PM MST WED DEC 17 2014

NOTE: "FAIR" MEANS FEW OR NO CLOUDS BELOW 12,000 FEET AGL WITH NO
       SIGNIFICANT WEATHER OR OBSTRUCTIONS TO VISION.

      THIS PRODUCT IS RELEASED AS TWO VERSIONS.  ONE VERSION NEAR
      THE TOP OF THE HOUR CONTAINING PRELIMINARY DATA FROM ALBUQUERQUE
      AND OTHER STATIONS.  A FINAL VERSION WITH ADDITIONAL DATA IS
      ISSUED ABOUT 10 MINUTES AFTER THE HOUR.

NMZ501-503-504-510>518-180200-
NORTHWEST PLATEAU/NORTHCENTRAL MOUNTAINS

CITY           SKY/WX    TMP DP  RH WIND       PRES   REMARKS
FARMINGTON     LGT RAIN  34  33  96 W3        30.01R
LOS ALAMOS     FOG       30  30 100 CALM      30.00R VSB 1/4
SANTA FE       CLOUDY    33  31  92 W8        30.00R WCI  26
TAOS           CLOUDY    30  27  86 CALM      29.99R
ANGEL FIRE     LGT SNOW  28  24  84 CALM      29.97R

$$
NMZ402-403-502-505>509-180200-
WESTCENTRAL MOUNTAINS/SOUTHWEST MOUNTAINS

CITY           SKY/WX    TMP DP  RH WIND       PRES   REMARKS
GALLUP         MOCLDY    32  28  85 SW7       30.04R WCI  26
GRANTS         MOCLDY    31  29  94 CALM      30.05R
SILVER CITY    MOCLDY    41  34  75 SW6       30.12R

$$
NMZ407-409-411-412-180200-
SOUTHERN DESERTS

CITY           SKY/WX    TMP DP  RH WIND       PRES   REMARKS
LORDSBURG      CLOUDY    41  37  87 NW9       30.11R
DEMING         MOCLDY    44  39  82 W7        30.10R
LAS CRUCES     PTCLDY    46  37  70 W17       30.09R
HOLLOMAN AFB   PTCLDY    52  30  42 SW14      30.04R
ALAMOGORDO     PTCLDY    48  32  53 CALM      30.06R
T OR C         CLEAR     45  24  43 W5        30.04R

$$
NMZ519>523-180200-
CENTRAL VALLEYS/CENTRAL HIGHLANDS

CITY           SKY/WX    TMP DP  RH WIND       PRES   REMARKS
ALBUQUERQUE    CLOUDY    39  36  89 S7        30.04R WCI  34
DOUBLE EAGLE   CLOUDY    36  34  93 SE3       30.03R
MORIARTY ARPT  LGT RAIN  35  33  92 SW9       30.02R WCI  28
CLINES CORNERS CLOUDY    33  31  92 W20       29.96R WCI  21
BELEN          CLOUDY    38  37  94 SW8       30.04R WCI  32
SOCORRO        MOCLDY    44  34  68 N6        30.03R

$$
NMZ524>526-539-540-180200-
SOUTHCENTRAL MOUNTAINS

CITY           SKY/WX    TMP DP  RH WIND       PRES   REMARKS
RUIDOSO        MOCLDY    36  32  87 SW15      30.06R WCI  26

$$
NMZ527>531-180200-
NORTHEAST HIGHLANDS/NORTHEAST PLAINS

CITY           SKY/WX    TMP DP  RH WIND       PRES   REMARKS
LAS VEGAS      MOCLDY    32  23  69 SW7       29.93R WCI  26
RATON          CLOUDY    31  24  75 N5        29.91R WCI  26
CLAYTON        LGT RAIN  38  29  70 N14       29.92R WCI  30

$$
NMZ532>537-180200-
EASTCENTRAL PLAINS

CITY           SKY/WX    TMP DP  RH WIND       PRES   REMARKS
TUCUMCARI      CLEAR     46  30  53 SW13      29.90R
CANNON AFB     PTCLDY    42  28  56 SW8       29.95R
CLOVIS AIRPORT PTCLDY    41  27  56 SW7       29.95R

$$
NMZ028-029-538-180200-
SOUTHEAST PLAINS

CITY           SKY/WX    TMP DP  RH WIND       PRES   REMARKS
ROSWELL        PTCLDY    54  30  40 SW17      29.97R
ARTESIA        CLEAR     50  32  50 W8        30.01R
CARLSBAD       CLEAR     53  29  39 W10       29.99R
HOBBS          CLEAR     52  27  37 SW8       30.00R


$$



USA.gov is the U.S. government's official web portal to all federal, state and local government web resources and services.